Bozeman, MT

8:10 PM MDT on April 26, 2017 (GMT -0600)
Gallatin

Weather History for KBZN - February, 2012

Change the Weather History Date:

Tuesday, February 21, 2012

  Actual Average Record
Temperature  
Mean Temperature 36 °F 28 °F  
Max Temperature 44 °F 41 °F 63 °F (1982)
Min Temperature 27 °F 16 °F -19 °F (1993)
Degree Days  
Heating Degree Days 29 37  
Month to date heating degree days 859 812  
Since 1 July heating degree days 5158 5334  
Cooling Degree Days 0 0  
Month to date cooling degree days 0 0  
Year to date cooling degree days 0 0  
Moisture  
Dew Point 27 °F    
Average Humidity 71    
Maximum Humidity 85    
Minimum Humidity 57    
Precipitation  
Precipitation T in 0.02 in 0.18 in (2005)
Month to date precipitation 0.25 0.30  
Year to date precipitation 0.35 0.78  
Snow  
Snow 0.00 in 0.10 in 1.60 in (1951)
Month to date snowfall 5.7 3.5  
Since 1 July snowfall 14.2 20.9  
Snow Depth -    
Sea Level Pressure  
Sea Level Pressure 29.84 in    
Wind  
Wind Speed 5 mph (ENE)    
Max Wind Speed 16 mph    
Max Gust Speed 22 mph    
Visibility 10 miles    
Events Rain , Snow    
T = Trace of Precipitation, MM = Missing Value Source: NWS Daily Summary

Daily Weather History Graph

Daily Weather History Graph

Search for Another Location

Airport or City:

Trip Planner

Search our weather history database for the weather conditions in past years. The results will help you decide how hot, cold, wet, or windy it might be!

Date:

Astronomy

Feb. 21, 2012 Rise Set
Actual Time 7:17 AM MST 5:59 PM MST
Civil Twilight 6:47 AM MST 6:29 PM MST
Nautical Twilight 6:12 AM MST 7:04 PM MST
Astronomical Twilight 5:38 AM MST 7:38 PM MST
Moon 6:46 AM MST (2/21) 6:12 PM MST (2/21)
Length of Visible Light 11h 42m
Length of Day
10h 41m
Waning Crescent, 0% of the Moon is Illuminated
Feb 21
Waning Crescent
Feb 21
New
Feb 29
First Quarter
Mar 8
Full
Mar 14
Last Quarter

Hourly Weather History & Observations

Time (MST) Temp. Windchill Dew Point Humidity Pressure Visibility Wind Dir Wind Speed Gust Speed Precip Events Conditions
12:56 AM 28.0 °F - 21.9 °F 78% 29.96 in 10.0 mi Calm Calm - N/A   Overcast
1:52 AM 32.0 °F - 21.2 °F 64% 29.84 in 6.0 mi Calm Calm - 0.00 in Snow Light Snow
1:56 AM 32.0 °F - 21.9 °F 66% 29.93 in 7.0 mi Calm Calm - 0.00 in Snow Light Snow
2:20 AM 30.2 °F 23.4 °F 23.0 °F 75% 29.83 in 10.0 mi East 6.9 mph - 0.00 in   Overcast
2:56 AM 28.9 °F 21.1 °F 25.0 °F 85% 29.91 in 10.0 mi East 8.1 mph - 0.00 in   Overcast
3:56 AM 28.9 °F 22.8 °F 25.0 °F 85% 29.92 in 9.0 mi ENE 5.8 mph - 0.00 in   Overcast
4:56 AM 30.0 °F 21.1 °F 25.0 °F 82% 29.91 in 9.0 mi ENE 10.4 mph - 0.00 in Snow Light Snow
5:56 AM 30.0 °F 22.4 °F 25.0 °F 82% 29.89 in 10.0 mi East 8.1 mph - 0.00 in   Overcast
6:56 AM 30.2 °F - 24.8 °F 80% 29.79 in 10.0 mi Calm Calm - N/A   Overcast
7:56 AM 30.9 °F 25.2 °F 24.1 °F 76% 29.90 in 10.0 mi East 5.8 mph - N/A   Overcast
8:56 AM 34.0 °F 29.8 °F 24.1 °F 67% 29.88 in 10.0 mi East 4.6 mph - N/A   Overcast
9:56 AM 36.0 °F 33.3 °F 24.1 °F 62% 29.89 in 10.0 mi East 3.5 mph - N/A   Overcast
10:56 AM 37.0 °F 31.0 °F 28.0 °F 70% 29.87 in 10.0 mi ENE 8.1 mph - N/A   Overcast
11:56 AM 37.0 °F 30.4 °F 28.0 °F 70% 29.88 in 9.0 mi ENE 9.2 mph - 0.00 in Snow Light Snow
12:56 PM 36.0 °F 28.0 °F 30.0 °F 79% 29.87 in 9.0 mi ENE 11.5 mph - 0.00 in   Overcast
1:56 PM 39.0 °F 36.8 °F 28.0 °F 65% 29.84 in 10.0 mi East 3.5 mph - N/A   Overcast
2:56 PM 37.9 °F - 27.0 °F 65% 29.84 in 10.0 mi Calm Calm - N/A   Overcast
3:56 PM 41.0 °F 33.5 °F 30.0 °F 65% 29.82 in 10.0 mi WSW 13.8 mph - 0.00 in Rain Light Rain
4:56 PM 39.0 °F 34.8 °F 30.9 °F 73% 29.81 in 10.0 mi WNW 5.8 mph - 0.00 in   Overcast
5:56 PM 37.9 °F - 30.9 °F 76% 29.80 in 10.0 mi Calm Calm - 0.00 in   Overcast
6:56 PM 37.9 °F 35.5 °F 30.9 °F 76% 29.78 in 10.0 mi North 3.5 mph - N/A   Overcast
7:56 PM 37.0 °F - 30.9 °F 79% 29.77 in 10.0 mi Calm Calm - 0.00 in Rain Light Rain
8:56 PM 41.0 °F 33.9 °F 30.0 °F 65% 29.73 in 10.0 mi West 12.7 mph 18.4 mph 0.00 in   Overcast
9:56 PM 42.1 °F 37.1 °F 28.9 °F 60% 29.72 in 10.0 mi West 8.1 mph - N/A   Overcast
10:56 PM 37.0 °F 34.5 °F 30.0 °F 76% 29.73 in 10.0 mi East 3.5 mph - N/A   Overcast
11:56 PM 39.9 °F - 30.0 °F 68% 29.73 in 10.0 mi Calm Calm - N/A   Overcast